www.pogodaiklimat.ru

Погода и климат >> Архив погоды >> Аргентина >> Las Flores


ПОГОДА в Las Flores

  • Прогноз погоды в Las Flores
  • Монитор погоды в Las Flores
  • Климат города

АРХИВ ПОГОДЫ в Las Flores

Время (UTC), дата Ветер
(напр.,м/с)
 
Видим.   Явления Облачность Т
(С)
Тd
(С)
f
(%)
Тe
(С)
Тes
(С)
Комфортность P
(гПа)
Po
(гПа)
Тmin
(С)
Tmax
(С)
R
(мм)
R24
(мм)
S
(см)
21 18.04 СВ 1 15 км 8/5 750 м
[Sc diur, vesp Ci]
+19.0 +11.0 60 +21 +21 комфорт 1019.3 1015.0
00 19.04 штиль 0 15 км 10/10 750 м
[Frnb]
+16.6 +12.9 79 +17 +17 1018.6 1014.2 +14.1 +20.5
09 19.04 штиль 0 15 км 8/8 750 м
[Sc diur, vesp]
+14.5 1016.1 1011.8
12 19.04 СВ 3 15 км 8/8 750 м
[Frnb]
+16.0 +12.8 81 +16 +16 1016.8 1012.5 +14.4 +16.6
15 19.04 СВ 3 15 км 10/10 750 м
[Frnb]
+18.6 +13.0 70 +19 +19 1015.0 1010.8
18 19.04 С 2 15 км 9/9 750 м
[Sc diur, vesp]
+20.4 +13.9 66 +23 +24 комфорт 1011.8 1007.6
21 19.04 штиль 0 6000 м слабая морось 10/10 750 м
[St]
+19.3 +15.6 79 +21 +21 комфорт 1010.6 1006.4
00 20.04 штиль 0 15 км {морось} 10/10 750 м
[St]
+17.6 +15.6 88 +18 +18 1009.8 1005.6 +15.9 +20.6 0.1
09 20.04 штиль 0 <100 м туман 10/0
[]
+15.7 +14.5 93 +15 +15 1009.4 1005.2
12 20.04 ЮЗ 2 15 км {туман} 9/9 750 м
[Sc]
+15.3 +12.6 84 +15 +15 1009.7 1005.4 +14.9 +17.6 0.1
15 20.04 0 н/о +18.7 +10.7 60 1008.3 1004.0
18 20.04 ЮЗ 2 15 км 5/5 750 м
[Cu hum]
+22.0 +10.5 48 +24 +27 комфорт 1005.9 1001.7
21 20.04 ЮЗ 2 15 км 5/4 750 м
[Cu hum Ac trans]
+21.3 +13.4 61 +24 +24 комфорт 1005.4 1001.2
00 21.04 ЮЗ 1 15 км 10/10 750 м
[Frnb]
+19.0 +13.4 70 +21 +21 комфорт 1006.4 1002.1 +15.2 +23.4
09 21.04 ЮЗ 3 15 км 5/5 750 м
[Sc diur, vesp]
+14.0 +11.8 87 +13 +13 1009.9 1005.6
12 21.04 Ю 5 25 км 3/0
[Ci]
+15.6 +9.9 69 +14 +15 1011.3 1007.0 +13.4 +19.0
15 21.04 Ю 5 15 км ясно +19.2 +10.0 55 +20 +24 1011.7 1007.4
18 21.04 Ю 6 15 км 3/3 750 м
[Cu hum]
+20.5 +6.2 39 +21 +23 комфорт 1010.5 1011.0
21 21.04 ЮЗ 5 15 км 8/8 750 м
[Sc diur, vesp]
+19.1 +8.7 51 +20 +20 1011.3 1007.0
00 22.04 ЮЗ 1 15 км ясно +12.5 +6.9 69 +13 +13 1014.7 1010.4 +12.4 +21.0
09 22.04 ЮЗ 2 15 км 3/0
[Ci]
+8.5 +6.8 89 +7 +7 1018.3 1014.0
12 22.04 ЮЗ 2 15 км 8/0
[Ci sp]
+11.8 +7.3 74 +11 +12 1018.9 1014.5 +7.5 +12.5
15 22.04 ЮЗ 1 15 км 8/0
[Ci sp]
+15.2 +5.7 53 +16 +24 1019.4 1015.0
18 22.04 ЮЗ 4 15 км 6/0
[Ci sp]
+18.5 +5.3 42 +19 +22 1017.3 1012.9
21 22.04 З 1 15 км ясно +16.9 +6.7 51 +18 +18 1016.8 1013.4
00 23.04 З 1 15 км ясно +13.4 +7.1 66 +14 +14 1017.8 1013.4 +11.7 +19.0
09 23.04 З 1 15 км ясно +8.1 +6.6 90 +7 +7 1019.0 1014.6
12 23.04 ЮЗ 2 15 км 5/0
[Ac trans Ci]
+11.0 +8.4 84 +10 +11 1019.7 1015.3 +7.9 +13.4
15 23.04 З 2 15 км 5/0
[Ci]
+18.2 +7.0 48 +19 +26 1019.5 1015.2
18 23.04 З 2 15 км 5/4 750 м
[Sc diur, vesp Ci]
+20.0 +4.7 37 +21 +25 комфорт 1016.9 1012.6
21 23.04 В 1 15 км 10/10 750 м
[Frnb]
+18.0 +10.6 62 +19 +19 1015.8 1011.4
00 24.04 СВ 1 15 км 9/9 750 м
[Frnb]
+16.0 +11.0 72 +17 +17 1015.2 1010.9 +10.9 +20.5
09 24.04 штиль 0 6000 м слабый дождь {морось} 10/10 750 м
[Frnb]
+13.4 +11.7 89 +13 +13 1015.7 1011.4
12 24.04 В 3 6000 м слабый дождь {морось} 10/10 750 м
[Frnb]
+13.8 +10.8 82 +13 +13 1015.2 1010.9 +12.9 +16.0 0.3
15 24.04 В 2 15 км {дождь} 10/10 750 м
[Frnb]
+15.6 +12.7 83 +15 +15 1014.3 1010.0
18 24.04 В 1 15 км 10/10 750 м
[Frnb]
+19.5 +9.9 54 +22 +22 комфорт 1011.1 1006.9 0.1
21 24.04 СВ 1 15 км 9/6 750 м
[Sc diur, vesp Ac trans]
+19.0 +12.3 65 +21 +21 комфорт 1010.5 1006.2
00 25.04 СВ 1 15 км ясно +14.4 +11.6 83 +15 +15 1010.7 1006.4 +13.7 +20.3
09 25.04 штиль 0 <100 м туман 10/0
[]
+9.7 +8.5 92 +9 +9 1008.4 1004.1
12 25.04 Ю 2 500 м туман 10/10 750 м
[St]
+10.8 +8.8 87 +9 +9 1009.8 1005.4 +9.4 +14.4 0.1
15 25.04 ЮВ 2 15 км {туман} 10/10 750 м
[Frnb]
+15.0 +11.5 80 +15 +15 1008.5 1004.2

 

Местоположение метеостанции Las Flores (Аргентина): широта -36.07 долгота -59.10 высота над уровнем моря 38 м.

В архиве по умолчанию представлена погода в Las Flores за последнюю неделю. Архивные данные за месяц целиком и за предыдущие месяцы, начиная с января 2011 года, Вы можете получить, выбрав интересующий диапазон дат из раскрывающегося списка и нажав кнопку "Ввод!".

Внимание! Время в таблицах - всемирное. Для получения местного времени необходимо прибавить поправку, которая в Las Flores равна -3 ч.

Смотрите также архив погоды в соседних городах и на ближайших метеорологических станциях:

Погода в Azul (Аргентина) (110 км)
Погода в Dolores (Аргентина) (127 км)
Погода в Tandil (Аргентина) (130 км)
Погода в Ezeiza (Аргентина) (149 км)
Погода в La Plata (Аргентина) (164 км)
Погода в Buenos Aires (Аргентина) (175 км)
Погода в Bolivar (Аргентина) (178 км)
Погода в Buenos Aires Aeropuerto (Аргентина) (179 км)
Погода в Colonia (Уругвай) (214 км)
Погода в Junin (Аргентина) (236 км)

Пояснения к столбцам:

Ветер - указаны скорость ветра в м/с - средняя за 10 мин, порывы в срок и между сроками (в фигурных скобках) и направление, откуда дует ветер: С - северный, СВ - северо-восточный, В - восточный, ЮВ - юго-восточный, Ю - южный, ЮЗ - юго-западный, З - западный, СЗ - северо-западный.
Видимость - горизонтальная дальность видимости в метрах или километрах. При видимости от 1 до 10 км при отсутствии осадков обычно наблюдается дымка, при ухудшении видимости до 1 км и менее - туман. В сухую погоду видимость может ухудшаться дымом, пылью или мглою.
Явления - указаны атмосферные явления, наблюдавшиеся в срок или в последний час перед сроком; фигурными скобками обозначены явления, наблюдавшиеся между сроками (за 1-3 часа до срока); квадратными скобками обозначены град или гололедные отложения с указанием их диаметра в мм.
Облачность - указаны через наклонную черту общая и нижняя облачность в баллах и высота нижней границы облаков в метрах; квадратными скобками обозначены формы облаков: Ci - перистые, Cs - перисто-слоистые, Cc - перисто-кучевые, Ac - высококучевые, As - высокослоистые, Sc - слоисто-кучевые, Ns - слоисто-дождевые, Cu - кучевые, Cb - кучево-дождевые. Подробнее классификацию облаков см. в Атласе облаков (PDF).
T - Температура воздуха - температура, измеренная на высоте 2 м над землей.
Td - Температура точки росы - температура, при понижении до которой содержащийся в воздухе водяной пар достигнет насыщения.
f - Относительная влажность воздуха - влажноcть воздуха, измеренная на высоте 2 м над землей.
Te - Эффективная температура - температура, которую ощущает одетый по сезону человек в тени. Характеристика душности погоды. При расчете учитывается влияние влажности воздуха и скорости ветра на теплоощущения человека.
Tes - Эффективная температура на солнце - температура, которую ощущает человек, с поправкой на солнечный нагрев. Характеристика знойности погоды. Зависит от высоты солнца над горизонтом, облачности и скорости ветра. Ночью, в пасмурную погоду, а также при ветре 12 м/с и более поправка равна нулю.
P - Атмосферное давление - приведенное к уровню моря атмосферное давление.
Po - Атмосферное давление - измеренное на уровне метеостанции атмосферное давление.
Tmin - Минимальная температура - минимум температуры воздуха на высоте 2 м над землей.
Tmax - Максимальная температура - максимум температуры воздуха на высоте 2 м над землей.
R - Количество осадков - Количество выпавших осадков за период времени, мм. При наведении курсора мыши на число - период времени, за который выпало указанное количество осадков.
R24 - Количество осадков - Количество выпавших осадков за 24 часа, мм.
S - Снежный покров - Высота снежного покрова, см. При наведении курсора мыши на число - состояние снежного покрова и степень покрытия местности в баллах.